[[{"header":{"parameterUnit":"m.s-1","parameterCategory":1,"la1":30.2991,"la2":30.254,"lo1":-89.0895,"lo2":-89.0444,"dy":0.0017,"dx":0.0017,"nx":28,"ny":28,"refTime":"2024-08-18T09:00:00:Z","depth":0,"parameterNumber":2,"parameterNumberName":"U-component_of_WINDS"},"data":[0,0,0,0,0,0,0,0,0,0,0,0,0,0,0,0,0,0,0,0,0,0,0,0,0,0,0,0,0,0,0,0,0,0,0,0,0,0,0,0,0,0,0,0,0,0,0,0,0,0,0,0,0,0,0,0,0,0,1.6931,1.6932,0,1.704,1.7041,1.7043,1.7079,1.7079,1.7078,1.7078,1.7195,1.7199,1.7202,0,0,0,0,0,0,0,0,0,0,0,0,0,1.6759,1.6761,1.693,1.6932,1.6933,1.704,1.7042,1.7043,1.7079,1.7079,1.7078,1.7078,1.7194,1.7198,1.7202,0,0,0,0,0,0,0,0,0,0,0,0,0,1.6847,1.6762,1.693,1.6964,1.6968,1.704,1.7042,1.7043,1.7079,1.7079,1.7078,1.7077,1.7192,1.7198,1.7203,1.725,0,0,1.7219,1.7222,0,0,0,0,0,0,0,0,1.6842,1.6854,1.6958,1.6962,1.6967,1.7045,1.7024,1.7113,1.708,1.7037,1.7078,1.7077,1.7146,1.7155,1.7178,1.7256,1.7261,1.722,1.7223,1.7225,1.7227,0,0,0,0,0,0,0,1.6836,1.6849,1.6974,1.6959,1.6965,1.6976,1.6988,1.7041,1.7095,1.7041,1.7044,1.7056,1.7148,1.7172,1.7181,1.7263,1.722,1.7224,1.7228,1.723,1.7387,1.7388,0,0,0,0,0,0,1.6823,1.6844,1.6971,1.6977,1.6901,1.6979,1.6993,1.7021,1.7094,1.7104,1.7057,1.7057,1.7163,1.7174,1.7185,1.7246,1.7225,1.723,1.7233,1.7386,1.7388,1.7389,0,0,0,0,0,0,1.682,1.6834,1.6966,1.6911,1.6929,1.6983,1.7014,1.7023,1.7047,1.7106,1.7116,1.7071,1.7163,1.7177,1.7234,1.7251,1.7233,1.7238,1.7385,1.7387,1.7388,1.7368,0,0,0,0,0,0,1.6814,1.6833,1.685,1.6911,1.6932,1.7011,1.7015,1.7026,1.7056,1.7058,1.7122,1.7132,1.7164,1.7226,1.7239,1.7258,1.7242,1.7384,1.7386,1.7388,1.7367,1.7369,1.737,0,0,0,0,0,1.6808,1.684,1.685,1.6865,1.6954,1.7012,1.7024,1.7059,1.7057,1.7075,1.7113,1.713,1.7247,1.7231,1.7247,1.7267,1.7383,1.7385,1.7388,1.7367,1.7368,1.737,0,0,0,0,0,0,1.6781,1.6849,1.6861,1.6914,1.6957,1.7018,1.7042,1.7059,1.7105,1.7105,1.7148,1.7163,1.7216,1.7248,1.7229,1.7318,1.7316,1.7321,1.7295,1.7297,1.7298,1.7289,1.7246,0,0,0,0,0,1.678,1.682,1.6879,1.692,1.6941,1.6988,1.7015,1.7038,1.7085,1.7104,1.7146,1.7192,1.724,1.727,1.7317,1.7372,1.7388,1.7394,1.7395,1.7396,1.74,1.7434,1.7438,1.7396,1.7396,1.7396,0,0,1.6781,1.6823,1.6846,1.6915,1.6951,1.6994,1.7003,1.7047,1.708,1.7111,1.7167,1.7199,1.7255,1.7311,1.7338,1.7339,1.7415,1.7399,1.7399,1.7403,1.7436,1.744,1.7444,1.7397,1.7397,1.7397,0,0,1.6804,1.6839,1.6877,1.6913,1.6967,1.6999,1.7008,1.7068,1.709,1.7146,1.7171,1.7212,1.7292,1.733,1.7361,1.7399,1.7417,1.7414,1.7419,1.7451,1.7455,1.7458,1.7473,1.7477,1.7418,1.7418,1.7418,0,1.6798,1.686,1.6896,1.6938,1.6969,1.6998,1.7039,1.7073,1.714,1.7162,1.7161,1.7263,1.7303,1.7369,1.7378,1.7402,1.7415,1.7406,1.7451,1.7455,1.7458,1.7473,1.7478,1.7417,1.7417,1.7417,1.7417,0,1.6851,1.6895,1.692,1.6982,1.7016,1.7057,1.7101,1.7131,1.7152,1.7184,1.7242,1.729,1.7348,1.7366,1.7387,1.7436,1.7435,1.7442,1.7441,1.7461,1.7475,1.7481,1.7416,1.7416,1.7416,1.7417,0,0,1.6859,1.6941,1.6949,1.6979,1.7041,1.7076,1.7121,1.7175,1.7201,1.7247,1.7286,1.7354,1.7362,1.7396,1.7422,1.745,1.7479,1.7455,1.7457,1.7458,1.7538,1.7532,1.7538,1.7491,1.7493,1.7494,1.7534,0,1.689,1.6967,1.7001,1.7064,1.7105,1.7135,1.7173,1.7217,1.7249,1.729,1.7326,1.7374,1.738,1.7401,1.743,1.7469,1.7496,1.7467,1.753,1.7532,1.7515,1.7546,1.7539,1.7575,1.754,1.7541,1.7542,0,1.6936,1.698,1.7047,1.7105,1.7124,1.7158,1.7212,1.7251,1.7302,1.7323,1.7362,1.7387,1.7437,1.7433,1.7503,1.7482,1.7511,1.7534,1.7537,1.7544,1.7538,1.7555,1.7587,1.7593,1.7551,1.755,1.7549,0,1.6935,1.7012,1.7062,1.7087,1.7156,1.7179,1.721,1.726,1.7291,1.734,1.7361,1.7414,1.7444,1.7486,1.7526,1.7519,1.7593,1.7592,1.7614,1.7613,1.7628,1.7627,1.7666,1.7645,1.7645,1.7645,1.7645,0,1.6966,1.7006,1.7063,1.7094,1.714,1.718,1.7225,1.7258,1.7303,1.7343,1.7372,1.7409,1.7459,1.7503,1.7535,1.7589,1.7603,1.7623,1.7631,1.762,1.7617,1.7639,1.7638,1.7647,1.7646,1.7646,1.7646,0,1.6973,1.7013,1.707,1.7131,1.7147,1.7178,1.7232,1.7264,1.7298,1.7347,1.7361,1.7415,1.7468,1.7512,1.7583,1.7604,1.7661,1.767,1.7643,1.7647,1.7667,1.7665,1.7722,1.7732,1.7704,1.7704,1.7704,0,1.6991,1.7022,1.7086,1.7113,1.7143,1.7187,1.7219,1.726,1.7293,1.7354,1.738,1.7435,1.7481,1.7566,1.7612,1.7667,1.7678,1.7695,1.7687,1.7675,1.7679,1.7677,1.7681,1.7695,1.7695,1.7695,1.7695,0,1.7017,1.7036,1.7079,1.713,1.7167,1.721,1.7254,1.7275,1.7325,1.736,1.7414,1.745,1.7522,1.7577,1.7637,1.7671,1.7693,1.7698,1.7706,1.7695,1.7678,1.7689,1.7645,1.7696,1.7696,1.7696,1.7696,1.7696,1.7031,1.706,1.711,1.7158,1.7195,1.7235,1.7269,1.7306,1.7351,1.7411,1.7434,1.749,1.7543,1.7625,1.766,1.7706,1.7708,1.7719,1.7723,1.7725,1.7724,1.7671,1.7717,1.7717,1.7717,1.7717,1.7717,0,1.7059,1.7093,1.7137,1.7196,1.7235,1.725,1.7299,1.7331,1.7379,1.7426,1.7471,1.7534,1.7588,1.7639,1.7696,1.7724,1.7735,1.7737,1.7736,1.7744,1.7718,1.7705,1.7727,1.7727,1.7727,1.7727,1.7727,1.7727,1.7079,1.713,1.7154,1.7224,1.7259,1.7312,1.7339,1.7377,1.7415,1.7483,1.7528,1.756,1.7609,1.7671,1.7722,1.7736,1.7756,1.7756,1.7772,1.7747,1.7746,1.7744,1.7732,1.776,1.776,1.7795,1.7795,1.7795]},{"header":{"parameterUnit":"m.s-1","parameterCategory":1,"la1":30.2991,"la2":30.254,"lo1":-89.0895,"lo2":-89.0444,"dy":0.0017,"dx":0.0017,"nx":28,"ny":28,"refTime":"2024-08-18T09:00:00:Z","depth":0,"parameterNumber":3,"parameterNumberName":"V-component_of_WINDS"},"data":[0,0,0,0,0,0,0,0,0,0,0,0,0,0,0,0,0,0,0,0,0,0,0,0,0,0,0,0,0,0,0,0,0,0,0,0,0,0,0,0,0,0,0,0,0,0,0,0,0,0,0,0,0,0,0,0,0,0,-4.4077,-4.4079,0,-4.4245,-4.4247,-4.4249,-4.4293,-4.4292,-4.4291,-4.429,-4.4455,-4.4461,-4.4466,0,0,0,0,0,0,0,0,0,0,0,0,0,-4.3788,-4.3793,-4.4077,-4.4079,-4.4081,-4.4245,-4.4247,-4.425,-4.4293,-4.4292,-4.4291,-4.4289,-4.4454,-4.446,-4.4466,0,0,0,0,0,0,0,0,0,0,0,0,0,-4.393,-4.3795,-4.4076,-4.4123,-4.4128,-4.4245,-4.4247,-4.425,-4.4293,-4.4292,-4.429,-4.4289,-4.4451,-4.4459,-4.4467,-4.4547,0,0,-4.4492,-4.4495,0,0,0,0,0,0,0,0,-4.3922,-4.3941,-4.4114,-4.412,-4.4126,-4.4247,-4.4206,-4.4349,-4.4294,-4.423,-4.429,-4.4288,-4.4387,-4.44,-4.4435,-4.4555,-4.4562,-4.4492,-4.4497,-4.4501,-4.4503,0,0,0,0,0,0,0,-4.3912,-4.3934,-4.4143,-4.4116,-4.4124,-4.4133,-4.4152,-4.4234,-4.4315,-4.4236,-4.424,-4.4259,-4.439,-4.4427,-4.4439,-4.4564,-4.4492,-4.4499,-4.4504,-4.4507,-4.4761,-4.4763,0,0,0,0,0,0,-4.3895,-4.3925,-4.4138,-4.4148,-4.4019,-4.414,-4.4161,-4.4209,-4.4314,-4.4329,-4.426,-4.4261,-4.4414,-4.4429,-4.4445,-4.4547,-4.4501,-4.4508,-4.4513,-4.4759,-4.4762,-4.4764,0,0,0,0,0,0,-4.3889,-4.3914,-4.4131,-4.4038,-4.4066,-4.4147,-4.4201,-4.4214,-4.4251,-4.4333,-4.4347,-4.4284,-4.4413,-4.4433,-4.4523,-4.4554,-4.4512,-4.4519,-4.4757,-4.476,-4.4763,-4.4751,0,0,0,0,0,0,-4.388,-4.3911,-4.3943,-4.4038,-4.4071,-4.4207,-4.4203,-4.4218,-4.4265,-4.4267,-4.4358,-4.4372,-4.4414,-4.451,-4.453,-4.4564,-4.4525,-4.4755,-4.4758,-4.4762,-4.4749,-4.4754,-4.4757,0,0,0,0,0,-4.387,-4.3931,-4.3945,-4.397,-4.4113,-4.4209,-4.4227,-4.4276,-4.4268,-4.43,-4.4353,-4.4369,-4.4547,-4.4519,-4.4542,-4.4578,-4.4753,-4.4757,-4.4762,-4.4748,-4.4753,-4.4757,0,0,0,0,0,0,-4.3834,-4.3944,-4.396,-4.4055,-4.4123,-4.4216,-4.4258,-4.428,-4.435,-4.4348,-4.4404,-4.4424,-4.451,-4.4553,-4.452,-4.4663,-4.465,-4.4659,-4.4631,-4.4637,-4.4641,-4.4628,-4.4532,0,0,0,0,0,-4.3838,-4.3908,-4.4,-4.4074,-4.4108,-4.4177,-4.422,-4.4253,-4.4324,-4.4352,-4.4412,-4.4479,-4.455,-4.4596,-4.4666,-4.4756,-4.4777,-4.4792,-4.4796,-4.4799,-4.4806,-4.4859,-4.4868,-4.4778,-4.4778,-4.4778,0,0,-4.3845,-4.3914,-4.3954,-4.4069,-4.4125,-4.4196,-4.4201,-4.4274,-4.4327,-4.4363,-4.4452,-4.4498,-4.4576,-4.4667,-4.471,-4.4705,-4.4836,-4.4805,-4.4806,-4.4812,-4.4864,-4.4873,-4.488,-4.4781,-4.4781,-4.478,0,0,-4.3894,-4.3953,-4.4023,-4.408,-4.4167,-4.4214,-4.423,-4.4322,-4.4355,-4.4446,-4.4475,-4.4537,-4.4658,-4.4714,-4.4758,-4.4832,-4.485,-4.4853,-4.4873,-4.4925,-4.4932,-4.4938,-4.4966,-4.4975,-4.486,-4.486,-4.486,0,-4.3891,-4.4001,-4.4055,-4.4129,-4.4179,-4.4218,-4.4289,-4.4341,-4.4445,-4.4478,-4.4472,-4.4628,-4.4683,-4.4788,-4.4807,-4.4841,-4.4862,-4.4843,-4.4927,-4.4934,-4.4941,-4.4968,-4.4978,-4.486,-4.486,-4.486,-4.486,0,-4.3994,-4.407,-4.4115,-4.4219,-4.4273,-4.4345,-4.4409,-4.4458,-4.4486,-4.4533,-4.4626,-4.4694,-4.478,-4.4807,-4.4834,-4.4917,-4.4912,-4.4916,-4.4904,-4.4948,-4.4975,-4.4985,-4.486,-4.486,-4.486,-4.486,0,0,-4.4024,-4.4159,-4.4175,-4.4223,-4.4323,-4.4382,-4.4455,-4.4543,-4.4584,-4.4655,-4.4718,-4.4821,-4.4827,-4.4877,-4.491,-4.4955,-4.5012,-4.4954,-4.4956,-4.4963,-4.5109,-4.5106,-4.5118,-4.5024,-4.5026,-4.5028,-4.5103,0,-4.4086,-4.4222,-4.4275,-4.4385,-4.4456,-4.4496,-4.456,-4.4628,-4.4674,-4.474,-4.479,-4.4863,-4.4864,-4.4895,-4.4941,-4.4995,-4.5042,-4.499,-4.5083,-4.5086,-4.5063,-4.5131,-4.5128,-4.5195,-4.5114,-4.5116,-4.5117,0,-4.4177,-4.4253,-4.4371,-4.4465,-4.4497,-4.4554,-4.464,-4.4702,-4.478,-4.4811,-4.4869,-4.49,-4.4979,-4.4963,-4.5071,-4.5035,-4.5076,-4.5109,-4.5113,-4.5123,-4.5104,-4.5144,-4.5218,-4.5228,-4.5133,-4.5132,-4.5131,0,-4.4188,-4.432,-4.4408,-4.4448,-4.456,-4.4599,-4.4647,-4.4724,-4.4774,-4.4848,-4.4881,-4.4962,-4.5006,-4.5067,-4.512,-4.5103,-4.5224,-4.5212,-4.5252,-4.525,-4.5275,-4.5273,-4.5357,-4.53,-4.53,-4.53,-4.53,0,-4.4253,-4.4324,-4.4416,-4.447,-4.4551,-4.461,-4.4688,-4.4738,-4.4807,-4.4871,-4.4909,-4.4968,-4.5034,-4.5102,-4.5143,-4.5228,-4.5247,-4.5273,-4.5284,-4.5271,-4.5267,-4.5298,-4.5295,-4.5303,-4.5302,-4.5302,-4.5301,0,-4.4279,-4.4343,-4.4443,-4.4542,-4.4568,-4.4624,-4.4708,-4.4762,-4.4811,-4.4892,-4.4914,-4.4991,-4.5073,-4.5132,-4.5236,-4.5264,-4.5355,-4.5365,-4.533,-4.5335,-4.5372,-4.5368,-4.5479,-4.5497,-4.5427,-4.5428,-4.5428,0,-4.4316,-4.4373,-4.4479,-4.4527,-4.4575,-4.465,-4.4703,-4.4764,-4.4816,-4.4911,-4.4954,-4.5039,-4.5111,-4.5239,-4.5303,-4.5384,-4.5396,-4.543,-4.5408,-4.5394,-4.5398,-4.5394,-4.5401,-4.5432,-4.5433,-4.5433,-4.5433,0,-4.4376,-4.4406,-4.4481,-4.4569,-4.4631,-4.4702,-4.4773,-4.4809,-4.4883,-4.494,-4.5026,-4.5082,-4.5191,-4.5275,-4.5362,-4.541,-4.5434,-4.544,-4.5454,-4.5441,-4.5419,-4.5433,-4.5339,-4.5437,-4.5437,-4.5436,-4.5436,-4.5436,-4.441,-4.4463,-4.4547,-4.463,-4.4691,-4.4758,-4.4815,-4.4873,-4.4946,-4.5042,-4.5073,-4.5162,-4.524,-4.5361,-4.5411,-4.5481,-4.5479,-4.5498,-4.5503,-4.5507,-4.5508,-4.5408,-4.5496,-4.5496,-4.5496,-4.5496,-4.5496,0,-4.4473,-4.453,-4.4606,-4.4707,-4.4773,-4.4793,-4.4873,-4.4926,-4.5006,-4.5078,-4.5149,-4.5249,-4.5331,-4.5403,-4.5489,-4.5531,-4.5544,-4.5551,-4.5549,-4.556,-4.5503,-4.5484,-4.554,-4.554,-4.554,-4.5539,-4.5539,-4.5539,-4.4513,-4.4605,-4.4645,-4.4768,-4.4824,-4.4914,-4.4959,-4.502,-4.5079,-4.519,-4.526,-4.5307,-4.538,-4.5472,-4.5548,-4.5567,-4.5597,-4.5602,-4.5623,-4.5569,-4.5564,-4.5559,-4.5541,-4.5608,-4.5608,-4.5675,-4.5676,-4.5676]}]]